Thomas G. Thompson — KTDQ — position and weather

sailwx.info

Track history (hours):
 
Tides and Currents Weather Stations Pressure Air Temp Water Temp Dewpoint Dewpoint Depression Visibility Wind Speed Wind Dir Waves Ship Positions

Oceanographic research ship Thomas G. Thompson (USA)

Ship's website: http://www.ocean.washington.edu/vessels/TGT/tgt.html

Detailed information on ship capabilities available from University of Delaware's Ocean Information Center.

Owner: UNIVERSITY OF WASHINGTON, SEATTLE, WA. More information available from US FCC via Universal Licensing System and Coast Guard Vessel Documentation Center.

Last reported at 2014-Oct-24 11:21 UTC. Time now 2014-Oct-25 11:22 UTC.
Position N 48°12' W 125°02'.

Type: Other ship. MMSI: 366345000.

Date/timePositionNaut miles runAvg speedWind from/ knotsBaromVisibWave heightAir tempDewpointWater temp
2014-Oct-24 11:21N 48°12' W 125°02'1011.1
2014-Oct-24 10:29N 48°21' W 125°06'9 9.8
2014-Oct-24 09:32N 48°30' W 125°01'1110.9
2014-Oct-24 08:33N 48°31' W 124°45'1111.1
2014-Oct-24 07:33N 48°27' W 124°29'1211.8
2014-Oct-24 06:33N 48°22' W 124°13'1313.5
2014-Oct-24 05:33N 48°17' W 123°54'1313.0
2014-Oct-24 04:31N 48°15' W 123°34'1414.8
2014-Oct-24 03:33N 48°13' W 123°13'1312.6
2014-Oct-24 02:32N 48°12' W 122°54'2 1.6
2014-Oct-24 01:24N 48°12' W 122°51'1112.4
2014-Oct-24 00:33N 48°06' W 122°39'7 6.1
2014-Oct-23 23:28N 47°59' W 122°37'3 3.6
2014-Oct-23 22:33N 47°57' W 122°33'1211.6
2014-Oct-23 21:33N 47°47' W 122°26'5 4.7
2014-Oct-23 20:33N 47°42' W 122°27'5 4.5
2014-Oct-23 19:34N 47°38' W 122°26'2 1.4
2014-Oct-23 18:20N 47°38' W 122°23'1 0.0
2014-Oct-23 02:32N 47°37' W 122°24'1111.1
2014-Oct-23 01:33N 47°26' W 122°23'9 9.2
2014-Oct-23 00:34N 47°19' W 122°32'1110.7
2014-Oct-22 23:34N 47°10' W 122°39'3 2.9
2014-Oct-22 22:34N 47°07' W 122°41'2 2.3
2014-Oct-22 21:33N 47°09' W 122°39'1212.1
2014-Oct-22 20:34N 47°19' W 122°30'9 9.4
2014-Oct-22 19:33N 47°28' W 122°25'8 8.3
2014-Oct-22 18:33N 47°36' W 122°23'0 0.4
2014-Oct-22 17:34N 47°37' W 122°23'0 0.5
2014-Oct-22 16:34N 47°37' W 122°22'1 1.2
2014-Oct-22 15:33N 47°38' W 122°23'0 0.0
2014-Oct-22 14:28N 47°38' W 122°23'0 0.0
2014-Oct-22 13:31N 47°38' W 122°23'0 0.0
2014-Oct-22 12:31N 47°38' W 122°23'0 0.0
2014-Oct-22 11:31N 47°38' W 122°23'0 0.0
2014-Oct-22 10:31N 47°38' W 122°23'0 0.0
2014-Oct-22 09:28N 47°38' W 122°23'0 0.0
2014-Oct-22 08:25N 47°38' W 122°23'0 0.0
2014-Oct-22 07:31N 47°38' W 122°23'0 0.0
2014-Oct-22 06:31N 47°38' W 122°23'0 0.0
2014-Oct-22 05:25N 47°38' W 122°23'0 0.0
2014-Oct-22 04:31N 47°38' W 122°23'0 0.0
2014-Oct-22 03:31N 47°38' W 122°23'0 0.0
2014-Oct-22 01:25N 47°38' W 122°23'0 0.0
2014-Oct-21 23:31N 47°38' W 122°23'0 0.0
2014-Oct-21 22:31N 47°38' W 122°23'1 1.4
2014-Oct-21 21:33N 47°38' W 122°25'3 2.5
2014-Oct-21 20:33N 47°40' W 122°24'3 3.2
2014-Oct-21 19:31N 47°39' W 122°19'0 0.0
2014-Oct-20 01:28N 47°39' W 122°19'2 2.5
2014-Oct-20 00:33N 47°39' W 122°22'2 1.5
2014-Oct-19 23:33N 47°40' W 122°24'3 3.4
2014-Oct-19 22:33N 47°43' W 122°25'0 0.1
2014-Oct-19 21:33N 47°43' W 122°25'2 2.4
2014-Oct-19 20:33N 47°46' W 122°27'1111.1
2014-Oct-19 19:33N 47°56' W 122°32'1312.6
2014-Oct-19 18:30N 48°08' W 122°42'1212.5
2014-Oct-19 17:33N 48°12' W 122°59'1313.4
2014-Oct-19 16:33N 48°13' W 123°19'1312.9
2014-Oct-19 15:32N 48°13' W 123°39'1212.0
2014-Oct-19 14:32N 48°14' W 123°57'1312.9
2014-Oct-19 13:33N 48°19' W 124°14'1211.8
2014-Oct-19 12:33N 48°24' W 124°30'1211.4
2014-Oct-19 11:33N 48°29' W 124°46'  
Track history (hours):
 
Tides and Currents Weather Stations Pressure Air Temp Water Temp Dewpoint Dewpoint Depression Visibility Wind Speed Wind Dir Waves Ship Positions

Oceanographic research ship Thomas G. Thompson (USA)

Ship's website: http://www.ocean.washington.edu/vessels/TGT/tgt.html

Detailed information on ship capabilities available from University of Delaware's Ocean Information Center.

Owner: UNIVERSITY OF WASHINGTON, SEATTLE, WA. More information available from US FCC via Universal Licensing System and Coast Guard Vessel Documentation Center.

Last reported at 2014-Oct-24 11:21 UTC. Time now 2014-Oct-25 11:22 UTC.
Position N 48°12' W 125°02'.

Type: Other ship. MMSI: 366345000.

Date/timePositionNaut miles runAvg speedWind from/ knotsBaromVisibWave heightAir tempDewpointWater temp
2014-Oct-24 11:21N 48°12' W 125°02'1011.1
2014-Oct-24 10:29N 48°21' W 125°06'9 9.8
2014-Oct-24 09:32N 48°30' W 125°01'1110.9
2014-Oct-24 08:33N 48°31' W 124°45'1111.1
2014-Oct-24 07:33N 48°27' W 124°29'1211.8
2014-Oct-24 06:33N 48°22' W 124°13'1313.5
2014-Oct-24 05:33N 48°17' W 123°54'1313.0
2014-Oct-24 04:31N 48°15' W 123°34'1414.8
2014-Oct-24 03:33N 48°13' W 123°13'1312.6
2014-Oct-24 02:32N 48°12' W 122°54'2 1.6
2014-Oct-24 01:24N 48°12' W 122°51'1112.4
2014-Oct-24 00:33N 48°06' W 122°39'7 6.1
2014-Oct-23 23:28N 47°59' W 122°37'3 3.6
2014-Oct-23 22:33N 47°57' W 122°33'1211.6
2014-Oct-23 21:33N 47°47' W 122°26'5 4.7
2014-Oct-23 20:33N 47°42' W 122°27'5 4.5
2014-Oct-23 19:34N 47°38' W 122°26'2 1.4
2014-Oct-23 18:20N 47°38' W 122°23'1 0.0
2014-Oct-23 02:32N 47°37' W 122°24'1111.1
2014-Oct-23 01:33N 47°26' W 122°23'9 9.2
2014-Oct-23 00:34N 47°19' W 122°32'1110.7
2014-Oct-22 23:34N 47°10' W 122°39'3 2.9
2014-Oct-22 22:34N 47°07' W 122°41'2 2.3
2014-Oct-22 21:33N 47°09' W 122°39'1212.1
2014-Oct-22 20:34N 47°19' W 122°30'9 9.4
2014-Oct-22 19:33N 47°28' W 122°25'8 8.3
2014-Oct-22 18:33N 47°36' W 122°23'0 0.4
2014-Oct-22 17:34N 47°37' W 122°23'0 0.5
2014-Oct-22 16:34N 47°37' W 122°22'1 1.2
2014-Oct-22 15:33N 47°38' W 122°23'0 0.0
2014-Oct-22 14:28N 47°38' W 122°23'0 0.0
2014-Oct-22 13:31N 47°38' W 122°23'0 0.0
2014-Oct-22 12:31N 47°38' W 122°23'0 0.0
2014-Oct-22 11:31N 47°38' W 122°23'0 0.0
2014-Oct-22 10:31N 47°38' W 122°23'0 0.0
2014-Oct-22 09:28N 47°38' W 122°23'0 0.0
2014-Oct-22 08:25N 47°38' W 122°23'0 0.0
2014-Oct-22 07:31N 47°38' W 122°23'0 0.0
2014-Oct-22 06:31N 47°38' W 122°23'0 0.0
2014-Oct-22 05:25N 47°38' W 122°23'0 0.0
2014-Oct-22 04:31N 47°38' W 122°23'0 0.0
2014-Oct-22 03:31N 47°38' W 122°23'0 0.0
2014-Oct-22 01:25N 47°38' W 122°23'0 0.0
2014-Oct-21 23:31N 47°38' W 122°23'0 0.0
2014-Oct-21 22:31N 47°38' W 122°23'1 1.4
2014-Oct-21 21:33N 47°38' W 122°25'3 2.5
2014-Oct-21 20:33N 47°40' W 122°24'3 3.2
2014-Oct-21 19:31N 47°39' W 122°19'0 0.0
2014-Oct-20 01:28N 47°39' W 122°19'2 2.5
2014-Oct-20 00:33N 47°39' W 122°22'2 1.5
2014-Oct-19 23:33N 47°40' W 122°24'3 3.4
2014-Oct-19 22:33N 47°43' W 122°25'0 0.1
2014-Oct-19 21:33N 47°43' W 122°25'2 2.4
2014-Oct-19 20:33N 47°46' W 122°27'1111.1
2014-Oct-19 19:33N 47°56' W 122°32'1312.6
2014-Oct-19 18:30N 48°08' W 122°42'1212.5
2014-Oct-19 17:33N 48°12' W 122°59'1313.4
2014-Oct-19 16:33N 48°13' W 123°19'1312.9
2014-Oct-19 15:32N 48°13' W 123°39'1212.0
2014-Oct-19 14:32N 48°14' W 123°57'1312.9
2014-Oct-19 13:33N 48°19' W 124°14'1211.8
2014-Oct-19 12:33N 48°24' W 124°30'1211.4
2014-Oct-19 11:33N 48°29' W 124°46'  

Dump ship's entire track history